Time,TemperatureF,DewpointF,PressureIn,WindDirection,WindDirectionDegrees,WindSpeedMPH,WindSpeedGustMPH,Humidity,HourlyPrecipIn,Conditions,Clouds,dailyrainin,SoftwareType,DateUTC
2013-02-01 00:00:00,29.2,25.3,29.94,NW,309,0.0,0.0,85,0.00,,---,0.10,VWS V14.01,2013-02-01 05:00:00,
2013-02-01 00:03:00,29.2,25.3,29.94,NW,309,0.0,0.0,85,0.00,,---,0.00,VWS V14.01,2013-02-01 05:03:00,
2013-02-01 00:08:00,29.2,25.3,29.94,NW,309,0.0,0.0,85,0.00,,---,0.00,VWS V14.01,2013-02-01 05:08:00,
2013-02-01 00:13:00,29.0,25.4,29.94,NW,309,0.0,0.0,86,0.00,,---,0.00,VWS V14.01,2013-02-01 05:13:00,
2013-02-01 00:18:00,29.0,25.4,29.94,NW,309,0.0,0.0,86,0.00,,---,0.00,VWS V14.01,2013-02-01 05:18:00,
2013-02-01 00:23:00,28.9,25.2,29.94,NW,309,0.0,0.0,86,0.00,,---,0.00,VWS V14.01,2013-02-01 05:23:00,
2013-02-01 00:28:00,28.8,25.1,29.94,NW,309,0.0,0.0,86,0.00,,---,0.00,VWS V14.01,2013-02-01 05:28:00,
2013-02-01 00:30:00,28.8,25.1,29.94,NW,309,0.0,0.0,86,0.00,,---,0.00,VWS V14.01,2013-02-01 05:30:00,
2013-02-01 00:33:00,28.8,25.1,29.93,NW,309,0.0,0.0,86,0.00,,---,0.00,VWS V14.01,2013-02-01 05:33:00,
2013-02-01 00:38:00,28.7,25.3,29.93,NW,309,0.0,0.0,87,0.00,,---,0.00,VWS V14.01,2013-02-01 05:38:00,
2013-02-01 00:43:00,28.7,25.3,29.93,NW,309,0.0,0.0,87,0.00,,---,0.00,VWS V14.01,2013-02-01 05:43:00,
2013-02-01 00:48:00,28.6,25.2,29.93,NW,309,0.0,0.0,87,0.00,,---,0.00,VWS V14.01,2013-02-01 05:48:00,
2013-02-01 00:53:00,28.6,25.5,29.93,NW,309,0.0,0.0,88,0.00,,---,0.00,VWS V14.01,2013-02-01 05:53:00,
2013-02-01 00:58:00,28.5,25.4,29.93,NW,309,0.0,0.0,88,0.00,,---,0.00,VWS V14.01,2013-02-01 05:58:00,
2013-02-01 01:00:00,28.5,25.4,29.92,NW,309,0.0,0.0,88,0.00,,---,0.00,VWS V14.01,2013-02-01 06:00:00,
2013-02-01 01:03:00,28.5,25.4,29.93,NW,309,0.0,0.0,88,0.00,,---,0.00,VWS V14.01,2013-02-01 06:03:00,
2013-02-01 01:08:00,28.6,25.5,29.93,WNW,295,0.0,1.0,88,0.00,,---,0.00,VWS V14.01,2013-02-01 06:08:00,
2013-02-01 01:13:00,28.9,25.5,29.93,SW,218,1.0,4.0,87,0.00,,---,0.00,VWS V14.01,2013-02-01 06:13:00,
2013-02-01 01:18:00,29.4,25.7,29.92,SW,226,0.0,4.0,86,0.00,,---,0.00,VWS V14.01,2013-02-01 06:18:00,
2013-02-01 01:23:00,29.9,26.0,29.93,SW,226,0.0,4.0,85,0.00,,---,0.00,VWS V14.01,2013-02-01 06:23:00,
2013-02-01 01:28:00,30.3,25.8,29.92,SW,226,0.0,4.0,83,0.00,,---,0.00,VWS V14.01,2013-02-01 06:28:00,
2013-02-01 01:30:00,30.6,26.1,29.93,SW,226,0.0,4.0,83,0.00,,---,0.00,VWS V14.01,2013-02-01 06:30:00,
2013-02-01 01:33:00,30.8,26.0,29.93,WSW,254,0.0,2.0,82,0.00,,---,0.00,VWS V14.01,2013-02-01 06:33:00,
2013-02-01 01:38:00,31.4,26.2,29.92,West,276,0.0,2.0,81,0.00,,---,0.00,VWS V14.01,2013-02-01 06:38:00,
2013-02-01 01:43:00,31.9,26.4,29.92,West,275,0.0,2.0,80,0.00,,---,0.00,VWS V14.01,2013-02-01 06:43:00,
2013-02-01 01:48:00,32.3,26.5,29.93,SW,236,0.0,3.0,79,0.00,,---,0.00,VWS V14.01,2013-02-01 06:48:00,
2013-02-01 01:53:00,32.7,26.6,29.92,West,270,0.0,3.0,78,0.00,,---,0.00,VWS V14.01,2013-02-01 06:53:00,
2013-02-01 01:58:00,32.9,26.8,29.92,West,270,0.0,3.0,78,0.00,,---,0.00,VWS V14.01,2013-02-01 06:58:00,
2013-02-01 02:00:00,33.1,27.0,29.92,West,270,0.0,3.0,78,0.00,,---,0.00,VWS V14.01,2013-02-01 07:00:00,
2013-02-01 02:03:00,33.1,27.0,29.92,West,270,0.0,2.0,78,0.00,,---,0.00,VWS V14.01,2013-02-01 07:03:00,
2013-02-01 02:08:00,33.2,26.8,29.92,West,270,0.0,2.0,77,0.00,,---,0.00,VWS V14.01,2013-02-01 07:08:00,
2013-02-01 02:13:00,33.3,26.6,29.91,SW,222,0.0,3.0,76,0.00,,---,0.00,VWS V14.01,2013-02-01 07:13:00,
2013-02-01 02:18:00,33.4,27.0,29.91,SW,223,0.0,3.0,77,0.00,,---,0.00,VWS V14.01,2013-02-01 07:18:00,
2013-02-01 02:23:00,33.6,27.2,29.91,SW,223,0.0,3.0,77,0.00,,---,0.00,VWS V14.01,2013-02-01 07:23:00,
2013-02-01 02:28:00,33.7,27.0,29.90,SW,235,0.0,3.0,76,0.00,,---,0.00,VWS V14.01,2013-02-01 07:28:00,
2013-02-01 02:30:00,33.8,27.0,29.90,SW,233,0.0,4.0,76,0.00,,---,0.00,VWS V14.01,2013-02-01 07:30:00,
2013-02-01 02:33:00,33.8,27.0,29.90,WSW,254,1.0,3.0,76,0.00,,---,0.00,VWS V14.01,2013-02-01 07:33:00,
2013-02-01 02:38:00,34.0,27.2,29.90,WSW,245,1.0,4.0,76,0.00,,---,0.00,VWS V14.01,2013-02-01 07:38:00,
2013-02-01 02:43:00,34.1,27.0,29.89,SW,219,1.0,4.0,75,0.00,,---,0.00,VWS V14.01,2013-02-01 07:43:00,
2013-02-01 02:48:00,34.2,27.1,29.89,SW,234,0.0,4.0,75,0.00,,---,0.00,VWS V14.01,2013-02-01 07:48:00,
2013-02-01 02:53:00,34.3,27.2,29.88,SW,232,0.0,4.0,75,0.00,,---,0.00,VWS V14.01,2013-02-01 07:53:00,
2013-02-01 02:58:00,34.4,27.3,29.88,SW,226,0.0,4.0,75,0.00,,---,0.00,VWS V14.01,2013-02-01 07:58:00,
2013-02-01 03:00:00,34.4,27.3,29.88,SW,234,0.0,4.0,75,0.00,,---,0.00,VWS V14.01,2013-02-01 08:00:00,
2013-02-01 03:03:00,34.5,27.4,29.88,SW,234,0.0,2.0,75,0.00,,---,0.00,VWS V14.01,2013-02-01 08:03:00,
2013-02-01 03:08:00,34.7,27.3,29.87,WSW,247,2.0,6.0,74,0.00,,---,0.00,VWS V14.01,2013-02-01 08:08:00,
2013-02-01 03:13:00,34.7,27.3,29.88,WSW,250,0.0,6.0,74,0.00,,---,0.00,VWS V14.01,2013-02-01 08:13:00,
2013-02-01 03:18:00,34.8,27.4,29.88,WSW,238,1.0,6.0,74,0.00,,---,0.00,VWS V14.01,2013-02-01 08:18:00,
2013-02-01 03:23:00,34.9,27.5,29.87,SW,218,0.0,6.0,74,0.00,,---,0.00,VWS V14.01,2013-02-01 08:23:00,
2013-02-01 03:28:00,35.0,27.6,29.87,WSW,238,0.0,6.0,74,0.00,,---,0.00,VWS V14.01,2013-02-01 08:28:00,
2013-02-01 03:30:00,35.1,27.7,29.87,WNW,296,3.0,6.0,74,0.00,,---,0.00,VWS V14.01,2013-02-01 08:30:00,
2013-02-01 03:33:00,35.2,27.8,29.87,SW,227,3.0,5.0,74,0.00,,---,0.00,VWS V14.01,2013-02-01 08:33:00,
2013-02-01 03:38:00,35.2,27.8,29.87,West,280,1.0,5.0,74,0.00,,---,0.00,VWS V14.01,2013-02-01 08:38:00,
2013-02-01 03:43:00,35.3,27.9,29.87,West,261,0.0,5.0,74,0.00,,---,0.00,VWS V14.01,2013-02-01 08:43:00,
2013-02-01 03:48:00,35.4,28.0,29.87,SW,225,1.0,5.0,74,0.00,,---,0.00,VWS V14.01,2013-02-01 08:48:00,
2013-02-01 03:53:00,35.4,27.6,29.86,SW,225,0.0,5.0,73,0.00,,---,0.00,VWS V14.01,2013-02-01 08:53:00,
2013-02-01 03:58:00,35.4,28.0,29.86,SW,232,0.0,5.0,74,0.00,,---,0.00,VWS V14.01,2013-02-01 08:58:00,
2013-02-01 04:00:00,35.4,28.0,29.86,SW,232,0.0,5.0,74,0.00,,---,0.00,VWS V14.01,2013-02-01 09:00:00,
2013-02-01 04:03:00,35.4,28.0,29.86,SW,232,0.0,1.0,74,0.00,,---,0.00,VWS V14.01,2013-02-01 09:03:00,
2013-02-01 04:08:00,35.3,27.9,29.85,SW,232,0.0,2.0,74,0.00,,---,0.00,VWS V14.01,2013-02-01 09:08:00,
2013-02-01 04:13:00,35.3,27.9,29.85,SW,232,1.0,2.0,74,0.00,,---,0.00,VWS V14.01,2013-02-01 09:13:00,
2013-02-01 04:18:00,35.2,27.8,29.84,SW,229,1.0,3.0,74,0.00,,---,0.00,VWS V14.01,2013-02-01 09:18:00,
2013-02-01 04:23:00,35.2,27.8,29.84,SW,234,0.0,3.0,74,0.00,,---,0.00,VWS V14.01,2013-02-01 09:23:00,
2013-02-01 04:28:00,35.2,28.1,29.84,SW,232,1.0,3.0,75,0.00,,---,0.00,VWS V14.01,2013-02-01 09:28:00,
2013-02-01 04:30:00,35.2,28.1,29.84,WSW,238,3.0,3.0,75,0.00,,---,0.00,VWS V14.01,2013-02-01 09:30:00,
2013-02-01 04:33:00,35.2,28.1,29.83,WSW,254,0.0,3.0,75,0.00,,---,0.00,VWS V14.01,2013-02-01 09:33:00,
2013-02-01 04:38:00,35.2,28.1,29.83,WSW,242,0.0,3.0,75,0.00,,---,0.00,VWS V14.01,2013-02-01 09:38:00,
2013-02-01 04:43:00,35.3,27.9,29.82,SW,236,0.0,4.0,74,0.00,,---,0.00,VWS V14.01,2013-02-01 09:43:00,
2013-02-01 04:48:00,35.4,28.3,29.83,SW,229,1.0,4.0,75,0.00,,---,0.00,VWS V14.01,2013-02-01 09:48:00,
2013-02-01 04:53:00,35.5,28.4,29.82,SW,229,0.0,4.0,75,0.00,,---,0.00,VWS V14.01,2013-02-01 09:53:00,
2013-02-01 04:58:00,35.5,28.4,29.82,SW,229,0.0,4.0,75,0.00,,---,0.00,VWS V14.01,2013-02-01 09:58:00,
2013-02-01 05:00:00,35.6,28.1,29.82,SW,229,0.0,4.0,74,0.00,,---,0.00,VWS V14.01,2013-02-01 10:00:00,
2013-02-01 05:03:00,35.6,28.1,29.82,SW,229,0.0,2.0,74,0.00,,---,0.00,VWS V14.01,2013-02-01 10:03:00,
2013-02-01 05:08:00,35.8,28.3,29.82,SW,229,1.0,3.0,74,0.00,,---,0.00,VWS V14.01,2013-02-01 10:08:00,
2013-02-01 05:13:00,36.0,28.5,29.83,WSW,252,1.0,5.0,74,0.00,,---,0.00,VWS V14.01,2013-02-01 10:13:00,
2013-02-01 05:18:00,36.2,28.4,29.83,WSW,249,4.0,5.0,73,0.00,,---,0.00,VWS V14.01,2013-02-01 10:18:00,
2013-02-01 05:23:00,36.5,28.7,29.82,SW,235,4.0,5.0,73,0.00,,---,0.00,VWS V14.01,2013-02-01 10:23:00,
2013-02-01 05:28:00,36.7,28.5,29.83,West,271,0.0,9.0,72,0.00,,---,0.00,VWS V14.01,2013-02-01 10:28:00,
2013-02-01 05:30:00,36.8,29.0,29.83,SSW,212,0.0,9.0,73,0.00,,---,0.00,VWS V14.01,2013-02-01 10:30:00,
2013-02-01 05:33:00,36.9,28.7,29.83,SW,221,0.0,4.0,72,0.00,,---,0.00,VWS V14.01,2013-02-01 10:33:00,
2013-02-01 05:38:00,37.0,28.8,29.83,WSW,240,2.0,4.0,72,0.00,,---,0.00,VWS V14.01,2013-02-01 10:38:00,
2013-02-01 05:43:00,37.1,28.9,29.84,SW,226,1.0,4.0,72,0.00,,---,0.00,VWS V14.01,2013-02-01 10:43:00,
2013-02-01 05:48:00,37.3,28.8,29.84,West,268,2.0,4.0,71,0.00,,---,0.00,VWS V14.01,2013-02-01 10:48:00,
2013-02-01 05:53:00,37.3,28.8,29.84,WSW,257,0.0,6.0,71,0.00,,---,0.00,VWS V14.01,2013-02-01 10:53:00,
2013-02-01 05:58:00,37.4,28.9,29.84,WSW,257,2.0,6.0,71,0.00,,---,0.00,VWS V14.01,2013-02-01 10:58:00,
2013-02-01 06:00:00,37.4,28.9,29.84,WSW,257,1.0,6.0,71,0.00,,---,0.00,VWS V14.01,2013-02-01 11:00:00,
2013-02-01 06:03:00,37.4,28.9,29.84,WSW,257,0.0,1.0,71,0.00,,---,0.00,VWS V14.01,2013-02-01 11:03:00,
2013-02-01 06:08:00,37.4,28.9,29.84,WSW,257,0.0,1.0,71,0.00,,---,0.00,VWS V14.01,2013-02-01 11:08:00,
2013-02-01 06:13:00,37.4,28.9,29.85,South,189,1.0,4.0,71,0.00,,---,0.00,VWS V14.01,2013-02-01 11:13:00,
2013-02-01 06:18:00,37.4,28.9,29.85,SW,235,1.0,4.0,71,0.00,,---,0.00,VWS V14.01,2013-02-01 11:18:00,
2013-02-01 06:23:00,37.4,29.2,29.85,SW,236,0.0,4.0,72,0.00,,---,0.00,VWS V14.01,2013-02-01 11:23:00,
2013-02-01 06:28:00,37.4,28.9,29.86,WSW,249,1.0,4.0,71,0.00,,---,0.00,VWS V14.01,2013-02-01 11:28:00,
2013-02-01 06:30:00,37.4,28.9,29.86,SW,231,0.0,4.0,71,0.00,,---,0.00,VWS V14.01,2013-02-01 11:30:00,
2013-02-01 06:33:00,37.5,29.0,29.86,SW,231,0.0,2.0,71,0.00,,---,0.00,VWS V14.01,2013-02-01 11:33:00,
2013-02-01 06:38:00,37.6,29.1,29.87,WSW,246,0.0,4.0,71,0.00,,---,0.00,VWS V14.01,2013-02-01 11:38:00,
2013-02-01 06:43:00,37.7,29.2,29.88,WNW,286,1.0,4.0,71,0.00,,---,0.00,VWS V14.01,2013-02-01 11:43:00,
2013-02-01 06:48:00,37.8,29.3,29.88,SW,223,4.0,4.0,71,0.00,,---,0.00,VWS V14.01,2013-02-01 11:48:00,
2013-02-01 06:53:00,38.0,29.1,29.89,SW,227,3.0,4.0,70,0.00,,---,0.00,VWS V14.01,2013-02-01 11:53:00,
2013-02-01 06:58:00,38.3,29.4,29.89,West,265,0.0,4.0,70,0.00,,---,0.00,VWS V14.01,2013-02-01 11:58:00,
2013-02-01 07:00:00,38.3,29.4,29.89,SSW,212,2.0,4.0,70,0.00,,---,0.00,VWS V14.01,2013-02-01 12:00:00,
2013-02-01 07:03:00,38.3,29.4,29.89,SW,221,0.0,2.0,70,0.00,,---,0.00,VWS V14.01,2013-02-01 12:03:00,
2013-02-01 07:08:00,38.4,29.5,29.90,WNW,286,0.0,3.0,70,0.00,,---,0.00,VWS V14.01,2013-02-01 12:08:00,
2013-02-01 07:13:00,38.4,29.5,29.91,WNW,287,0.0,3.0,70,0.00,,---,0.00,VWS V14.01,2013-02-01 12:13:00,
2013-02-01 07:18:00,38.5,29.6,29.91,West,281,0.0,4.0,70,0.00,,---,0.00,VWS V14.01,2013-02-01 12:18:00,
2013-02-01 07:23:00,38.6,29.7,29.92,WNW,286,0.0,4.0,70,0.00,,---,0.00,VWS V14.01,2013-02-01 12:23:00,
2013-02-01 07:28:00,38.7,29.8,29.92,West,270,1.0,4.0,70,0.00,,---,0.00,VWS V14.01,2013-02-01 12:28:00,
2013-02-01 07:30:00,38.7,29.8,29.92,West,270,0.0,4.0,70,0.00,,---,0.00,VWS V14.01,2013-02-01 12:30:00,
2013-02-01 07:33:00,38.7,29.8,29.93,West,270,0.0,0.0,70,0.00,,---,0.00,VWS V14.01,2013-02-01 12:33:00,
2013-02-01 07:38:00,38.7,29.8,29.93,West,270,0.0,2.0,70,0.00,,---,0.00,VWS V14.01,2013-02-01 12:38:00,
2013-02-01 07:43:00,38.7,29.8,29.94,West,270,0.0,2.0,70,0.00,,---,0.00,VWS V14.01,2013-02-01 12:43:00,
2013-02-01 07:48:00,38.9,30.0,29.96,NW,314,6.0,13.0,70,0.00,,---,0.00,VWS V14.01,2013-02-01 12:48:00,
2013-02-01 07:53:00,39.2,29.5,29.96,ENE,62,3.0,15.0,68,0.00,,---,0.00,VWS V14.01,2013-02-01 12:53:00,
2013-02-01 07:58:00,39.5,28.7,29.97,NNW,338,4.0,15.0,65,0.00,,---,0.00,VWS V14.01,2013-02-01 12:58:00,
2013-02-01 08:00:00,39.6,28.8,29.97,West,278,6.0,15.0,65,0.00,,---,0.00,VWS V14.01,2013-02-01 13:00:00,
2013-02-01 08:03:00,39.6,28.4,29.98,SW,218,5.0,16.0,64,0.00,,---,0.00,VWS V14.01,2013-02-01 13:03:00,
2013-02-01 08:08:00,39.6,28.1,29.99,WNW,288,12.0,16.0,63,0.00,,---,0.00,VWS V14.01,2013-02-01 13:08:00,
2013-02-01 08:13:00,39.4,27.1,29.99,NNW,344,10.0,16.0,61,0.00,,---,0.00,VWS V14.01,2013-02-01 13:13:00,
2013-02-01 08:18:00,39.3,26.6,30.00,SW,230,1.0,16.0,60,0.00,,---,0.00,VWS V14.01,2013-02-01 13:18:00,
2013-02-01 08:23:00,39.0,25.5,30.00,WSW,252,6.0,16.0,58,0.00,,---,0.00,VWS V14.01,2013-02-01 13:23:00,
2013-02-01 08:28:00,38.8,24.9,30.01,WSW,240,5.0,19.0,57,0.00,,---,0.00,VWS V14.01,2013-02-01 13:28:00,
2013-02-01 08:30:00,38.7,24.8,30.01,WSW,240,2.0,19.0,57,0.00,,---,0.00,VWS V14.01,2013-02-01 13:30:00,
2013-02-01 08:33:00,38.6,24.3,30.01,NNE,26,5.0,10.0,56,0.00,,---,0.00,VWS V14.01,2013-02-01 13:33:00,
2013-02-01 08:38:00,38.5,24.6,30.02,NE,40,0.0,10.0,57,0.00,,---,0.00,VWS V14.01,2013-02-01 13:38:00,
2013-02-01 08:43:00,38.4,24.1,30.02,West,280,5.0,10.0,56,0.00,,---,0.00,VWS V14.01,2013-02-01 13:43:00,
2013-02-01 08:48:00,38.2,23.0,30.03,NNE,12,1.0,10.0,54,0.00,,---,0.00,VWS V14.01,2013-02-01 13:48:00,
2013-02-01 08:53:00,37.8,21.8,30.04,NW,308,8.0,17.0,52,0.00,,---,0.00,VWS V14.01,2013-02-01 13:53:00,
2013-02-01 08:58:00,37.4,21.4,30.05,WNW,290,13.0,17.0,52,0.00,,---,0.00,VWS V14.01,2013-02-01 13:58:00,
2013-02-01 09:00:00,37.3,21.3,30.05,NW,314,8.0,17.0,52,0.00,,---,0.00,VWS V14.01,2013-02-01 14:00:00,
2013-02-01 09:03:00,37.3,21.3,30.05,West,279,6.0,18.0,52,0.00,,---,0.00,VWS V14.01,2013-02-01 14:03:00,
2013-02-01 09:08:00,37.2,20.3,30.06,West,259,2.0,18.0,50,0.00,,---,0.00,VWS V14.01,2013-02-01 14:08:00,
2013-02-01 09:13:00,37.2,19.3,30.06,NNE,33,4.0,18.0,48,0.00,,---,0.00,VWS V14.01,2013-02-01 14:13:00,
2013-02-01 09:18:00,37.1,17.7,30.06,West,259,3.0,18.0,45,0.00,,---,0.00,VWS V14.01,2013-02-01 14:18:00,
2013-02-01 09:23:00,37.0,17.1,30.07,SSW,207,1.0,18.0,44,0.00,,---,0.00,VWS V14.01,2013-02-01 14:23:00,
2013-02-01 09:28:00,37.0,16.1,30.08,NNW,344,10.0,18.0,42,0.00,,---,0.00,VWS V14.01,2013-02-01 14:28:00,
2013-02-01 09:30:00,36.9,16.0,30.07,NW,320,3.0,18.0,42,0.00,,---,0.00,VWS V14.01,2013-02-01 14:30:00,
2013-02-01 09:33:00,36.9,16.0,30.08,ENE,67,2.0,11.0,42,0.00,,---,0.00,VWS V14.01,2013-02-01 14:33:00,
2013-02-01 09:38:00,36.8,14.2,30.08,NNW,336,10.0,20.0,39,0.00,,---,0.00,VWS V14.01,2013-02-01 14:38:00,
2013-02-01 09:43:00,36.9,13.7,30.08,NW,321,2.0,20.0,38,0.00,,---,0.00,VWS V14.01,2013-02-01 14:43:00,
2013-02-01 09:48:00,36.8,11.7,30.08,WSW,251,8.0,20.0,35,0.00,,---,0.00,VWS V14.01,2013-02-01 14:48:00,
2013-02-01 09:53:00,36.6,10.2,30.09,West,261,1.0,20.0,33,0.00,,---,0.00,VWS V14.01,2013-02-01 14:53:00,
2013-02-01 09:58:00,36.5,11.5,30.09,WNW,284,12.0,20.0,35,0.00,,---,0.00,VWS V14.01,2013-02-01 14:58:00,
2013-02-01 10:00:00,36.5,11.5,30.10,SE,130,2.0,20.0,35,0.00,,---,0.00,VWS V14.01,2013-02-01 15:00:00,
2013-02-01 10:03:00,36.5,10.8,30.10,WSW,254,9.0,10.0,34,0.00,,---,0.00,VWS V14.01,2013-02-01 15:03:00,
2013-02-01 10:08:00,36.5,11.5,30.10,NW,326,1.0,15.0,35,0.00,,---,0.00,VWS V14.01,2013-02-01 15:08:00,
2013-02-01 10:13:00,36.7,12.9,30.11,NE,44,5.0,15.0,37,0.00,,---,0.00,VWS V14.01,2013-02-01 15:13:00,
2013-02-01 10:18:00,36.7,11.6,30.11,ENE,74,6.0,15.0,35,0.00,,---,0.00,VWS V14.01,2013-02-01 15:18:00,
2013-02-01 10:23:00,36.7,12.9,30.11,NW,306,5.0,15.0,37,0.00,,---,0.00,VWS V14.01,2013-02-01 15:23:00,
2013-02-01 10:28:00,36.8,11.7,30.12,NW,308,3.0,15.0,35,0.00,,---,0.00,VWS V14.01,2013-02-01 15:28:00,
2013-02-01 10:30:00,36.8,12.4,30.12,WNW,284,1.0,15.0,36,0.00,,---,0.00,VWS V14.01,2013-02-01 15:30:00,
2013-02-01 10:33:00,36.7,11.0,30.13,West,266,5.0,15.0,34,0.00,,---,0.00,VWS V14.01,2013-02-01 15:33:00,
2013-02-01 10:38:00,36.8,11.7,30.13,NE,36,3.0,15.0,35,0.00,,---,0.00,VWS V14.01,2013-02-01 15:38:00,
2013-02-01 10:43:00,36.9,11.8,30.13,North,355,3.0,15.0,35,0.00,,---,0.00,VWS V14.01,2013-02-01 15:43:00,
2013-02-01 10:48:00,36.8,11.7,30.14,NNE,14,3.0,15.0,35,0.00,,---,0.00,VWS V14.01,2013-02-01 15:48:00,
2013-02-01 10:53:00,36.7,11.6,30.14,WNW,286,3.0,15.0,35,0.00,,---,0.00,VWS V14.01,2013-02-01 15:53:00,
2013-02-01 10:58:00,36.6,10.9,30.14,NW,313,4.0,15.0,34,0.00,,---,0.00,VWS V14.01,2013-02-01 15:58:00,
2013-02-01 11:00:00,36.7,10.3,30.15,WSW,248,0.0,17.0,33,0.00,,---,0.00,VWS V14.01,2013-02-01 16:00:00,
2013-02-01 11:03:00,36.7,10.3,30.15,WNW,290,14.0,15.0,33,0.00,,---,0.00,VWS V14.01,2013-02-01 16:03:00,
2013-02-01 11:08:00,36.7,8.9,30.15,WNW,300,1.0,18.0,31,0.00,,---,0.00,VWS V14.01,2013-02-01 16:08:00,
2013-02-01 11:13:00,36.6,8.1,30.16,NNW,330,5.0,18.0,30,0.00,,---,0.00,VWS V14.01,2013-02-01 16:13:00,
2013-02-01 11:18:00,36.6,8.8,30.16,NNW,346,3.0,18.0,31,0.00,,---,0.00,VWS V14.01,2013-02-01 16:18:00,
2013-02-01 11:23:00,36.6,9.6,30.16,WSW,250,6.0,18.0,32,0.00,,---,0.00,VWS V14.01,2013-02-01 16:23:00,
2013-02-01 11:28:00,36.6,8.8,30.16,WNW,300,5.0,18.0,31,0.00,,---,0.00,VWS V14.01,2013-02-01 16:28:00,
2013-02-01 11:30:00,36.6,8.8,30.16,SW,225,2.0,18.0,31,0.00,,---,0.00,VWS V14.01,2013-02-01 16:30:00,
2013-02-01 11:33:00,36.5,8.8,30.16,NNW,339,1.0,9.0,31,0.00,,---,0.00,VWS V14.01,2013-02-01 16:33:00,
2013-02-01 11:38:00,36.6,10.2,30.16,West,265,3.0,10.0,33,0.00,,---,0.00,VWS V14.01,2013-02-01 16:38:00,
2013-02-01 11:43:00,36.7,9.6,30.16,NW,313,5.0,14.0,32,0.00,,---,0.00,VWS V14.01,2013-02-01 16:43:00,
2013-02-01 11:48:00,36.9,9.8,30.16,West,273,6.0,14.0,32,0.00,,---,0.00,VWS V14.01,2013-02-01 16:48:00,
2013-02-01 11:53:00,36.9,10.5,30.16,East,82,2.0,14.0,33,0.00,,---,0.00,VWS V14.01,2013-02-01 16:53:00,
2013-02-01 11:58:00,37.1,10.7,30.16,West,280,7.0,14.0,33,0.00,,---,0.00,VWS V14.01,2013-02-01 16:58:00,
2013-02-01 12:00:00,37.0,10.6,30.16,West,271,0.0,14.0,33,0.00,,---,0.00,VWS V14.01,2013-02-01 17:00:00,
2013-02-01 12:03:00,37.1,11.3,30.16,WNW,289,5.0,10.0,34,0.00,,---,0.00,VWS V14.01,2013-02-01 17:03:00,
2013-02-01 12:08:00,37.0,10.6,30.16,NNW,338,2.0,16.0,33,0.00,,---,0.00,VWS V14.01,2013-02-01 17:08:00,
2013-02-01 12:13:00,36.9,9.1,30.16,WNW,296,2.0,16.0,31,0.00,,---,0.00,VWS V14.01,2013-02-01 17:13:00,
2013-02-01 12:18:00,36.6,9.6,30.16,NW,313,3.0,16.0,32,0.00,,---,0.00,VWS V14.01,2013-02-01 17:18:00,
2013-02-01 12:23:00,36.7,8.9,30.17,NNW,334,2.0,16.0,31,0.00,,---,0.00,VWS V14.01,2013-02-01 17:23:00,
2013-02-01 12:28:00,36.9,9.8,30.16,WNW,289,9.0,16.0,32,0.00,,---,0.00,VWS V14.01,2013-02-01 17:28:00,
2013-02-01 12:30:00,36.9,9.1,30.17,NNE,27,4.0,16.0,31,0.00,,---,0.00,VWS V14.01,2013-02-01 17:30:00,
2013-02-01 12:33:00,37.0,8.5,30.17,WNW,302,3.0,11.0,30,0.00,,---,0.00,VWS V14.01,2013-02-01 17:33:00,
2013-02-01 12:38:00,37.0,8.5,30.17,SSW,200,5.0,16.0,30,0.00,,---,0.00,VWS V14.01,2013-02-01 17:38:00,
2013-02-01 12:43:00,37.1,9.3,30.17,NW,326,2.0,16.0,31,0.00,,---,0.00,VWS V14.01,2013-02-01 17:43:00,
2013-02-01 12:48:00,37.2,8.6,30.17,North,10,1.0,16.0,30,0.00,,---,0.00,VWS V14.01,2013-02-01 17:48:00,
2013-02-01 12:53:00,37.2,8.6,30.16,ENE,59,3.0,16.0,30,0.00,,---,0.00,VWS V14.01,2013-02-01 17:53:00,
2013-02-01 12:58:00,37.5,9.6,30.16,ENE,74,1.0,16.0,31,0.00,,---,0.00,VWS V14.01,2013-02-01 17:58:00,
2013-02-01 13:00:00,37.5,10.3,30.16,NNW,332,0.0,16.0,32,0.00,,---,0.00,VWS V14.01,2013-02-01 18:00:00,
2013-02-01 13:03:00,37.5,9.6,30.16,NE,39,3.0,6.0,31,0.00,,---,0.00,VWS V14.01,2013-02-01 18:03:00,
2013-02-01 13:08:00,37.5,10.3,30.16,NNE,33,0.0,11.0,32,0.00,,---,0.00,VWS V14.01,2013-02-01 18:08:00,
2013-02-01 13:13:00,37.8,12.0,30.16,NW,317,6.0,11.0,34,0.00,,---,0.00,VWS V14.01,2013-02-01 18:13:00,
2013-02-01 13:18:00,37.9,11.4,30.16,NE,34,4.0,11.0,33,0.00,,---,0.00,VWS V14.01,2013-02-01 18:18:00,
2013-02-01 13:23:00,38.1,11.6,30.16,North,5,9.0,11.0,33,0.00,,---,0.00,VWS V14.01,2013-02-01 18:23:00,
2013-02-01 13:28:00,38.1,11.6,30.16,NNE,28,0.0,11.0,33,0.00,,---,0.00,VWS V14.01,2013-02-01 18:28:00,
2013-02-01 13:30:00,38.1,10.9,30.16,West,267,1.0,11.0,32,0.00,,---,0.00,VWS V14.01,2013-02-01 18:30:00,
2013-02-01 13:33:00,38.2,12.3,30.16,NNE,28,4.0,4.0,34,0.00,,---,0.00,VWS V14.01,2013-02-01 18:33:00,
2013-02-01 13:38:00,38.3,11.0,30.16,WNW,284,5.0,10.0,32,0.00,,---,0.00,VWS V14.01,2013-02-01 18:38:00,
2013-02-01 13:43:00,38.3,10.3,30.16,NNE,31,2.0,10.0,31,0.00,,---,0.00,VWS V14.01,2013-02-01 18:43:00,
2013-02-01 13:48:00,38.4,11.1,30.16,SW,220,8.0,15.0,32,0.00,,---,0.00,VWS V14.01,2013-02-01 18:48:00,
2013-02-01 13:53:00,38.4,12.5,30.16,NNW,344,2.0,15.0,34,0.00,,---,0.00,VWS V14.01,2013-02-01 18:53:00,
2013-02-01 13:58:00,38.4,10.4,30.17,West,280,5.0,15.0,31,0.00,,---,0.00,VWS V14.01,2013-02-01 18:58:00,
2013-02-01 14:00:00,38.4,10.4,30.17,WNW,286,7.0,15.0,31,0.00,,---,0.00,VWS V14.01,2013-02-01 19:00:00,
2013-02-01 14:03:00,38.4,11.8,30.17,NW,317,2.0,7.0,33,0.00,,---,0.00,VWS V14.01,2013-02-01 19:03:00,
2013-02-01 14:08:00,38.5,11.2,30.16,SSW,207,3.0,13.0,32,0.00,,---,0.00,VWS V14.01,2013-02-01 19:08:00,
2013-02-01 14:13:00,38.6,10.6,30.17,WSW,252,0.0,17.0,31,0.00,,---,0.00,VWS V14.01,2013-02-01 19:13:00,
2013-02-01 14:18:00,38.7,10.7,30.16,WNW,302,1.0,17.0,31,0.00,,---,0.00,VWS V14.01,2013-02-01 19:18:00,
2013-02-01 14:23:00,38.8,12.2,30.17,SW,232,6.0,17.0,33,0.00,,---,0.00,VWS V14.01,2013-02-01 19:23:00,
2013-02-01 14:28:00,39.0,11.7,30.17,West,267,4.0,17.0,32,0.00,,---,0.00,VWS V14.01,2013-02-01 19:28:00,
2013-02-01 14:30:00,39.2,11.1,30.17,North,350,7.0,17.0,31,0.00,,---,0.00,VWS V14.01,2013-02-01 19:30:00,
2013-02-01 14:33:00,39.2,9.6,30.17,WNW,300,7.0,7.0,29,0.00,,---,0.00,VWS V14.01,2013-02-01 19:33:00,
2013-02-01 14:38:00,39.2,9.6,30.17,WSW,246,1.0,7.0,29,0.00,,---,0.00,VWS V14.01,2013-02-01 19:38:00,
2013-02-01 14:43:00,39.3,9.7,30.18,NNW,344,7.0,9.0,29,0.00,,---,0.00,VWS V14.01,2013-02-01 19:43:00,
2013-02-01 14:48:00,39.1,9.5,30.18,North,9,4.0,10.0,29,0.00,,---,0.00,VWS V14.01,2013-02-01 19:48:00,
2013-02-01 14:53:00,38.9,9.4,30.18,NNW,338,3.0,13.0,29,0.00,,---,0.00,VWS V14.01,2013-02-01 19:53:00,
2013-02-01 14:58:00,38.8,9.3,30.18,NW,324,9.0,13.0,29,0.00,,---,0.00,VWS V14.01,2013-02-01 19:58:00,
2013-02-01 15:00:00,38.6,9.1,30.18,West,269,7.0,13.0,29,0.00,,---,0.00,VWS V14.01,2013-02-01 20:00:00,
2013-02-01 15:03:00,38.5,9.0,30.19,WSW,252,6.0,9.0,29,0.00,,---,0.00,VWS V14.01,2013-02-01 20:03:00,
2013-02-01 15:08:00,38.4,8.1,30.19,WSW,248,10.0,17.0,28,0.00,,---,0.00,VWS V14.01,2013-02-01 20:08:00,
2013-02-01 15:13:00,38.2,7.2,30.19,West,259,5.0,17.0,27,0.00,,---,0.00,VWS V14.01,2013-02-01 20:13:00,
2013-02-01 15:18:00,38.2,8.8,30.19,NNW,343,4.0,17.0,29,0.00,,---,0.00,VWS V14.01,2013-02-01 20:18:00,
2013-02-01 15:23:00,38.2,8.0,30.19,NW,317,1.0,17.0,28,0.00,,---,0.00,VWS V14.01,2013-02-01 20:23:00,
2013-02-01 15:28:00,38.4,8.1,30.19,SW,234,3.0,17.0,28,0.00,,---,0.00,VWS V14.01,2013-02-01 20:28:00,
2013-02-01 15:30:00,38.4,8.1,30.19,West,277,3.0,17.0,28,0.00,,---,0.00,VWS V14.01,2013-02-01 20:30:00,
2013-02-01 15:33:00,38.4,7.3,30.19,West,259,1.0,11.0,27,0.00,,---,0.00,VWS V14.01,2013-02-01 20:33:00,
2013-02-01 15:38:00,38.4,7.3,30.19,SSW,210,5.0,11.0,27,0.00,,---,0.00,VWS V14.01,2013-02-01 20:38:00,
2013-02-01 15:43:00,38.4,8.1,30.19,SW,219,5.0,12.0,28,0.00,,---,0.00,VWS V14.01,2013-02-01 20:43:00,
2013-02-01 15:48:00,38.4,7.3,30.19,NNW,334,2.0,12.0,27,0.00,,---,0.00,VWS V14.01,2013-02-01 20:48:00,
2013-02-01 15:53:00,38.2,7.2,30.19,NNW,331,3.0,12.0,27,0.00,,---,0.00,VWS V14.01,2013-02-01 20:53:00,
2013-02-01 15:58:00,38.1,7.9,30.19,WNW,290,4.0,12.0,28,0.00,,---,0.00,VWS V14.01,2013-02-01 20:58:00,
2013-02-01 16:00:00,38.1,7.9,30.20,WSW,254,8.0,12.0,28,0.00,,---,0.00,VWS V14.01,2013-02-01 21:00:00,
2013-02-01 16:03:00,38.1,7.1,30.20,NW,315,5.0,9.0,27,0.00,,---,0.00,VWS V14.01,2013-02-01 21:03:00,
2013-02-01 16:08:00,38.0,8.6,30.20,NNW,335,3.0,9.0,29,0.00,,---,0.00,VWS V14.01,2013-02-01 21:08:00,
2013-02-01 16:13:00,38.1,7.9,30.20,WNW,284,6.0,9.0,28,0.00,,---,0.00,VWS V14.01,2013-02-01 21:13:00,
2013-02-01 16:18:00,38.2,8.8,30.20,West,266,2.0,11.0,29,0.00,,---,0.00,VWS V14.01,2013-02-01 21:18:00,
2013-02-01 16:23:00,38.1,7.9,30.20,SW,220,9.0,11.0,28,0.00,,---,0.00,VWS V14.01,2013-02-01 21:23:00,
2013-02-01 16:27:00,38.0,7.8,30.20,NW,306,4.0,11.0,28,0.00,,---,0.00,VWS V14.01,2013-02-01 21:27:00,
2013-02-01 16:30:00,37.9,7.7,30.20,NNW,327,1.0,11.0,28,0.00,,---,0.00,VWS V14.01,2013-02-01 21:30:00,
2013-02-01 16:32:00,37.8,7.6,30.20,NE,53,2.0,6.0,28,0.00,,---,0.00,VWS V14.01,2013-02-01 21:32:00,
2013-02-01 16:37:00,37.7,8.3,30.20,NNW,338,2.0,10.0,29,0.00,,---,0.00,VWS V14.01,2013-02-01 21:37:00,
2013-02-01 16:42:00,37.5,7.4,30.21,WNW,291,1.0,10.0,28,0.00,,---,0.00,VWS V14.01,2013-02-01 21:42:00,
2013-02-01 16:47:00,37.4,8.1,30.21,WNW,300,1.0,10.0,29,0.00,,---,0.00,VWS V14.01,2013-02-01 21:47:00,
2013-02-01 16:52:00,37.4,8.8,30.21,WSW,251,3.0,10.0,30,0.00,,---,0.00,VWS V14.01,2013-02-01 21:52:00,
2013-02-01 16:57:00,37.3,8.0,30.21,NW,320,4.0,13.0,29,0.00,,---,0.00,VWS V14.01,2013-02-01 21:57:00,
2013-02-01 17:00:00,37.2,7.9,30.21,NNW,327,2.0,13.0,29,0.00,,---,0.00,VWS V14.01,2013-02-01 22:00:00,
2013-02-01 17:02:00,37.1,7.8,30.21,WNW,284,3.0,5.0,29,0.00,,---,0.00,VWS V14.01,2013-02-01 22:02:00,
2013-02-01 17:07:00,37.0,7.7,30.21,West,259,2.0,5.0,29,0.00,,---,0.00,VWS V14.01,2013-02-01 22:07:00,
2013-02-01 17:12:00,36.9,8.4,30.21,WNW,295,0.0,5.0,30,0.00,,---,0.00,VWS V14.01,2013-02-01 22:12:00,
2013-02-01 17:17:00,36.7,7.4,30.21,WNW,286,0.0,6.0,29,0.00,,---,0.00,VWS V14.01,2013-02-01 22:17:00,
2013-02-01 17:22:00,36.5,8.0,30.21,West,261,1.0,6.0,30,0.00,,---,0.00,VWS V14.01,2013-02-01 22:22:00,
2013-02-01 17:27:00,36.3,7.8,30.22,NNW,341,1.0,6.0,30,0.00,,---,0.00,VWS V14.01,2013-02-01 22:27:00,
2013-02-01 17:30:00,36.2,7.8,30.22,WNW,300,0.0,6.0,30,0.00,,---,0.00,VWS V14.01,2013-02-01 22:30:00,
2013-02-01 17:32:00,36.1,7.7,30.22,WNW,300,0.0,1.0,30,0.00,,---,0.00,VWS V14.01,2013-02-01 22:32:00,
2013-02-01 17:37:00,35.9,8.2,30.22,WNW,299,0.0,4.0,31,0.00,,---,0.00,VWS V14.01,2013-02-01 22:37:00,
2013-02-01 17:42:00,35.7,7.3,30.22,NW,305,1.0,4.0,30,0.00,,---,0.00,VWS V14.01,2013-02-01 22:42:00,
2013-02-01 17:47:00,35.5,7.9,30.23,NW,324,1.0,4.0,31,0.00,,---,0.00,VWS V14.01,2013-02-01 22:47:00,
2013-02-01 17:52:00,35.3,7.7,30.23,NW,322,1.0,4.0,31,0.00,,---,0.00,VWS V14.01,2013-02-01 22:52:00,
2013-02-01 17:57:00,35.2,8.3,30.23,WNW,295,0.0,4.0,32,0.00,,---,0.00,VWS V14.01,2013-02-01 22:57:00,
2013-02-01 18:00:00,35.1,8.9,30.23,WNW,295,0.0,4.0,33,0.00,,---,0.00,VWS V14.01,2013-02-01 23:00:00,
2013-02-01 18:02:00,35.0,8.1,30.23,WNW,295,0.0,1.0,32,0.00,,---,0.00,VWS V14.01,2013-02-01 23:02:00,
2013-02-01 18:07:00,34.8,8.6,30.23,WNW,295,0.0,1.0,33,0.00,,---,0.00,VWS V14.01,2013-02-01 23:07:00,
2013-02-01 18:12:00,34.6,8.5,30.24,WNW,295,0.0,1.0,33,0.00,,---,0.00,VWS V14.01,2013-02-01 23:12:00,
2013-02-01 18:17:00,34.3,11.4,30.24,WNW,295,0.0,1.0,38,0.00,,---,0.00,VWS V14.01,2013-02-01 23:17:00,
2013-02-01 18:22:00,33.8,10.3,30.25,WNW,295,0.0,1.0,37,0.00,,---,0.00,VWS V14.01,2013-02-01 23:22:00,
2013-02-01 18:27:00,33.3,12.2,30.25,WNW,295,0.0,1.0,41,0.00,,---,0.00,VWS V14.01,2013-02-01 23:27:00,
2013-02-01 18:30:00,33.0,11.9,30.25,WNW,295,0.0,1.0,41,0.00,,---,0.00,VWS V14.01,2013-02-01 23:30:00,
2013-02-01 18:32:00,32.9,12.3,30.25,WNW,295,0.0,0.0,42,0.00,,---,0.00,VWS V14.01,2013-02-01 23:32:00,
2013-02-01 18:37:00,32.5,12.5,30.25,WNW,295,0.0,0.0,43,0.00,,---,0.00,VWS V14.01,2013-02-01 23:37:00,
2013-02-01 18:42:00,32.1,12.1,30.25,WNW,295,0.0,0.0,43,0.00,,---,0.00,VWS V14.01,2013-02-01 23:42:00,
2013-02-01 18:47:00,31.6,10.6,30.25,WNW,295,0.0,1.0,41,0.00,,---,0.00,VWS V14.01,2013-02-01 23:47:00,
2013-02-01 18:52:00,31.2,9.1,30.25,WNW,295,0.0,1.0,39,0.00,,---,0.00,VWS V14.01,2013-02-01 23:52:00,
2013-02-01 18:57:00,31.0,9.0,30.25,WNW,295,0.0,1.0,39,0.00,,---,0.00,VWS V14.01,2013-02-01 23:57:00,
2013-02-01 19:00:00,30.8,8.2,30.25,WNW,295,0.0,1.0,38,0.00,,---,0.00,VWS V14.01,2013-02-02 00:00:00,
2013-02-01 19:02:00,30.8,8.8,30.25,WNW,295,1.0,1.0,39,0.00,,---,0.00,VWS V14.01,2013-02-02 00:02:00,
2013-02-01 19:07:00,30.7,8.7,30.25,WNW,295,0.0,1.0,39,0.00,,---,0.00,VWS V14.01,2013-02-02 00:07:00,
2013-02-01 19:12:00,30.6,10.2,30.26,WNW,295,0.0,1.0,42,0.00,,---,0.00,VWS V14.01,2013-02-02 00:12:00,
2013-02-01 19:17:00,30.5,9.1,30.26,WNW,295,0.0,1.0,40,0.00,,---,0.00,VWS V14.01,2013-02-02 00:17:00,
2013-02-01 19:22:00,30.5,11.2,30.26,WNW,295,0.0,1.0,44,0.00,,---,0.00,VWS V14.01,2013-02-02 00:22:00,
2013-02-01 19:27:00,30.3,12.5,30.26,WNW,295,0.0,1.0,47,0.00,,---,0.00,VWS V14.01,2013-02-02 00:27:00,
2013-02-01 19:30:00,30.2,12.4,30.27,WNW,295,0.0,1.0,47,0.00,,---,0.00,VWS V14.01,2013-02-02 00:30:00,
2013-02-01 19:32:00,30.1,11.8,30.26,WNW,295,0.0,0.0,46,0.00,,---,0.00,VWS V14.01,2013-02-02 00:32:00,
2013-02-01 19:37:00,29.9,10.6,30.26,WNW,295,0.0,0.0,44,0.00,,---,0.00,VWS V14.01,2013-02-02 00:37:00,
2013-02-01 19:42:00,29.6,9.9,30.27,WNW,295,0.0,0.0,43,0.00,,---,0.00,VWS V14.01,2013-02-02 00:42:00,
2013-02-01 19:47:00,29.3,9.6,30.27,WNW,295,0.0,1.0,43,0.00,,---,0.00,VWS V14.01,2013-02-02 00:47:00,
2013-02-01 19:52:00,29.2,7.9,30.27,WNW,295,0.0,1.0,40,0.00,,---,0.00,VWS V14.01,2013-02-02 00:52:00,
2013-02-01 19:57:00,29.2,11.0,30.27,WNW,295,0.0,1.0,46,0.00,,---,0.00,VWS V14.01,2013-02-02 00:57:00,
2013-02-01 20:00:00,29.2,12.4,30.27,WNW,295,0.0,1.0,49,0.00,,---,0.00,VWS V14.01,2013-02-02 01:00:00,
2013-02-01 20:02:00,29.2,12.4,30.27,WNW,295,0.0,0.0,49,0.00,,---,0.00,VWS V14.01,2013-02-02 01:02:00,
2013-02-01 20:07:00,29.1,13.7,30.28,WNW,295,0.0,0.0,52,0.00,,---,0.00,VWS V14.01,2013-02-02 01:07:00,
2013-02-01 20:12:00,28.8,12.5,30.27,WNW,295,0.0,0.0,50,0.00,,---,0.00,VWS V14.01,2013-02-02 01:12:00,
2013-02-01 20:17:00,28.5,10.9,30.27,WNW,295,0.0,0.0,47,0.00,,---,0.00,VWS V14.01,2013-02-02 01:17:00,
2013-02-01 20:22:00,28.2,9.1,30.28,WNW,295,0.0,0.0,44,0.00,,---,0.00,VWS V14.01,2013-02-02 01:22:00,
2013-02-01 20:27:00,28.1,8.5,30.28,WNW,295,0.0,0.0,43,0.00,,---,0.00,VWS V14.01,2013-02-02 01:27:00,
2013-02-01 20:30:00,28.1,8.5,30.28,WNW,295,0.0,0.0,43,0.00,,---,0.00,VWS V14.01,2013-02-02 01:30:00,
2013-02-01 20:32:00,28.1,8.5,30.29,WNW,295,0.0,0.0,43,0.00,,---,0.00,VWS V14.01,2013-02-02 01:32:00,
2013-02-01 20:37:00,28.2,10.6,30.29,WNW,295,0.0,0.0,47,0.00,,---,0.00,VWS V14.01,2013-02-02 01:37:00,
2013-02-01 20:42:00,28.2,12.9,30.29,WNW,295,0.0,0.0,52,0.00,,---,0.00,VWS V14.01,2013-02-02 01:42:00,
2013-02-01 20:47:00,28.1,12.8,30.29,WNW,295,0.0,0.0,52,0.00,,---,0.00,VWS V14.01,2013-02-02 01:47:00,
2013-02-01 20:52:00,28.0,11.3,30.29,WNW,295,0.0,0.0,49,0.00,,---,0.00,VWS V14.01,2013-02-02 01:52:00,
2013-02-01 20:57:00,27.9,9.8,30.29,WNW,295,0.0,0.0,46,0.00,,---,0.00,VWS V14.01,2013-02-02 01:57:00,
2013-02-01 21:00:00,27.8,9.2,30.30,WNW,295,0.0,0.0,45,0.00,,---,0.00,VWS V14.01,2013-02-02 02:00:00,
2013-02-01 21:02:00,27.8,10.7,30.29,WNW,295,0.0,0.0,48,0.00,,---,0.00,VWS V14.01,2013-02-02 02:02:00,
2013-02-01 21:07:00,27.7,10.1,30.30,WNW,295,0.0,0.0,47,0.00,,---,0.00,VWS V14.01,2013-02-02 02:07:00,
2013-02-01 21:12:00,27.6,9.1,30.30,WNW,295,0.0,0.0,45,0.00,,---,0.00,VWS V14.01,2013-02-02 02:12:00,
2013-02-01 21:17:00,27.6,9.1,30.31,WNW,295,0.0,1.0,45,0.00,,---,0.00,VWS V14.01,2013-02-02 02:17:00,
2013-02-01 21:22:00,27.6,8.6,30.31,WNW,295,0.0,1.0,44,0.00,,---,0.00,VWS V14.01,2013-02-02 02:22:00,
2013-02-01 21:27:00,27.7,10.1,30.32,WNW,295,0.0,1.0,47,0.00,,---,0.00,VWS V14.01,2013-02-02 02:27:00,
2013-02-01 21:30:00,27.7,10.1,30.31,WNW,295,0.0,1.0,47,0.00,,---,0.00,VWS V14.01,2013-02-02 02:30:00,
2013-02-01 21:32:00,27.7,10.1,30.31,WNW,295,0.0,0.0,47,0.00,,---,0.00,VWS V14.01,2013-02-02 02:32:00,
2013-02-01 21:37:00,27.6,9.1,30.31,WNW,295,0.0,0.0,45,0.00,,---,0.00,VWS V14.01,2013-02-02 02:37:00,
2013-02-01 21:42:00,27.6,9.1,30.32,NNW,344,0.0,3.0,45,0.00,,---,0.00,VWS V14.01,2013-02-02 02:42:00,
2013-02-01 21:47:00,27.6,8.6,30.31,North,351,0.0,3.0,44,0.00,,---,0.00,VWS V14.01,2013-02-02 02:47:00,
2013-02-01 21:52:00,27.7,9.1,30.31,North,351,1.0,3.0,45,0.00,,---,0.00,VWS V14.01,2013-02-02 02:52:00,
2013-02-01 21:57:00,27.8,9.2,30.31,NNE,17,0.0,3.0,45,0.00,,---,0.00,VWS V14.01,2013-02-02 02:57:00,
2013-02-01 22:00:00,27.9,8.8,30.31,NNE,17,0.0,3.0,44,0.00,,---,0.00,VWS V14.01,2013-02-02 03:00:00,
2013-02-01 22:02:00,27.9,8.8,30.31,NNE,17,0.0,0.0,44,0.00,,---,0.00,VWS V14.01,2013-02-02 03:02:00,
2013-02-01 22:07:00,27.9,8.3,30.31,NNE,17,0.0,0.0,43,0.00,,---,0.00,VWS V14.01,2013-02-02 03:07:00,
2013-02-01 22:12:00,28.0,10.9,30.32,NNE,17,0.0,0.0,48,0.00,,---,0.00,VWS V14.01,2013-02-02 03:12:00,
2013-02-01 22:17:00,28.0,9.9,30.31,NNE,17,0.0,0.0,46,0.00,,---,0.00,VWS V14.01,2013-02-02 03:17:00,
2013-02-01 22:22:00,28.0,9.4,30.31,NNE,17,0.0,1.0,45,0.00,,---,0.00,VWS V14.01,2013-02-02 03:22:00,
2013-02-01 22:27:00,27.9,10.3,30.31,NNE,17,0.0,1.0,47,0.00,,---,0.00,VWS V14.01,2013-02-02 03:27:00,
2013-02-01 22:30:00,27.8,10.7,30.32,NNE,17,0.0,1.0,48,0.00,,---,0.00,VWS V14.01,2013-02-02 03:30:00,
2013-02-01 22:32:00,27.8,11.1,30.32,NNE,17,0.0,0.0,49,0.00,,---,0.00,VWS V14.01,2013-02-02 03:32:00,
2013-02-01 22:37:00,27.6,11.9,30.32,NNE,17,0.0,0.0,51,0.00,,---,0.00,VWS V14.01,2013-02-02 03:37:00,
2013-02-01 22:42:00,27.4,11.7,30.32,NNE,17,0.0,0.0,51,0.00,,---,0.00,VWS V14.01,2013-02-02 03:42:00,
2013-02-01 22:47:00,27.2,12.8,30.32,NNE,17,0.0,0.0,54,0.00,,---,0.00,VWS V14.01,2013-02-02 03:47:00,
2013-02-01 22:52:00,27.1,13.1,30.32,NNE,17,0.0,0.0,55,0.00,,---,0.00,VWS V14.01,2013-02-02 03:52:00,
2013-02-01 22:57:00,26.9,12.5,30.32,NNE,17,0.0,0.0,54,0.00,,---,0.00,VWS V14.01,2013-02-02 03:57:00,
2013-02-01 23:00:00,26.7,12.3,30.32,NNE,17,0.0,0.0,54,0.00,,---,0.00,VWS V14.01,2013-02-02 04:00:00,
2013-02-01 23:02:00,26.6,11.8,30.32,NNE,17,0.0,0.0,53,0.00,,---,0.00,VWS V14.01,2013-02-02 04:02:00,
2013-02-01 23:07:00,26.4,12.4,30.32,NNE,17,0.0,0.0,55,0.00,,---,0.00,VWS V14.01,2013-02-02 04:07:00,
2013-02-01 23:12:00,26.3,13.1,30.32,NNE,17,0.0,0.0,57,0.00,,---,0.00,VWS V14.01,2013-02-02 04:12:00,
2013-02-01 23:17:00,26.1,13.0,30.32,NNE,17,0.0,0.0,57,0.00,,---,0.00,VWS V14.01,2013-02-02 04:17:00,
2013-02-01 23:22:00,26.0,11.2,30.32,NNE,17,0.0,0.0,53,0.00,,---,0.00,VWS V14.01,2013-02-02 04:22:00,
2013-02-01 23:27:00,26.0,12.1,30.32,NNE,17,0.0,0.0,55,0.00,,---,0.00,VWS V14.01,2013-02-02 04:27:00,
2013-02-01 23:30:00,25.9,13.6,30.32,NNE,17,0.0,0.0,59,0.00,,---,0.00,VWS V14.01,2013-02-02 04:30:00,
2013-02-01 23:32:00,25.9,13.9,30.32,NNE,17,0.0,0.0,60,0.00,,---,0.00,VWS V14.01,2013-02-02 04:32:00,
2013-02-01 23:37:00,25.8,12.7,30.32,NNE,17,0.0,0.0,57,0.00,,---,0.00,VWS V14.01,2013-02-02 04:37:00,
2013-02-01 23:42:00,25.7,12.6,30.32,NNE,17,0.0,0.0,57,0.00,,---,0.00,VWS V14.01,2013-02-02 04:42:00,
2013-02-01 23:47:00,25.6,12.9,30.32,NNE,17,0.0,0.0,58,0.00,,---,0.00,VWS V14.01,2013-02-02 04:47:00,
2013-02-01 23:52:00,25.6,14.4,30.32,NNE,17,0.0,0.0,62,0.00,,---,0.00,VWS V14.01,2013-02-02 04:52:00,
2013-02-01 23:57:00,25.5,14.3,30.32,NNE,17,0.0,0.0,62,0.00,,---,0.00,VWS V14.01,2013-02-02 04:57:00,